レモン彗星

C/2021 T1 ( Lemmon )

English version
Home page
Updated on September 11, 2022

---------------------------------------------------------------------

・ プロフィール

発見日 2021年10月2日
発見光度 20.0等
発見者 Mt. Lemmon

・ 写真集

・ 軌道要素

Epoch 2022 Aug. 9.0 TT = JDT 2459800.5
T 2021 Oct. 14.05137 TT                                 Rudenko
q   3.0581844            (2000.0)            P               Q
z  +0.0007852      Peri.   51.51839     +0.84496327     -0.02716183
 +/-0.0000122      Node    56.83498     -0.02329576     -0.99963085
e   0.9975986      Incl.  140.35135     +0.53431675     -0.00062962
From 120 observations 2021 Sept. 15-2022 July 20, mean residual 0".5.

・ 光度変化

        m1 = 12.5 + 5 logΔ + 10.0 log r

---------------------------------------------------------------------

軌道要素はM.P.E.C. 2022-O116に掲載されたものです。
光度グラフはComet for Windowsで作成したものです。

---------------------------------------------------------------------

Copyright(C) Seiichi Yoshida (comet@aerith.net). All rights reserved.